AirNav   Phillips 66 Aviation Fuel
 
 458 users online  

KDRP Delta Regional Airport
Colt, Arkansas, USA

GOING TO COLT?


FAA INFORMATION EFFECTIVE 06 DECEMBER 2018

Location

FAA Identifier: DRP
Lat/Long: 35-07-12.2000N / 090-49-35.4000W
35-07.203333N / 090-49.590000W
35.1200556 / -90.8265000
(estimated)
Elevation: 239 ft. / 72.8 m (surveyed)
Variation: 01W (2015)
From city: 1 mile SW of COLT, AR
Time zone: UTC -6 (UTC -5 during Daylight Saving Time)
Zip code: 72326

Airport Operations

Airport use: Open to the public
Activation date: 04/2014
Control tower: no
ARTCC: MEMPHIS CENTER
FSS: JONESBORO FLIGHT SERVICE STATION
NOTAMs facility: JBR (NOTAM-D service available)
Attendance: UNATNDD
Wind indicator: lighted
Segmented circle: yes
Lights: ACTVT HIRL RY 18/36; REIL RYS 18 & 36 - CTAF. PAPI RYS 18 & 36 OPERS CONTINUOUSLY.
Beacon: white-green (lighted land airport)
Operates sunset to sunrise.

Airport Communications

CTAF/UNICOM: 123.0
  • APCH/DEP SVC PRVDD BY MEMPHIS ARTCC ON FREQS 135.3/335.8 (BRINKLEY RCAG).

Nearby radio navigation aids

VOR radial/distance  VOR name  Freq  Var
GQEr227/21.8GILMORE VOR/DME113.0004E
UJMr346/33.5MARVELL VOR/DME109.6001E

Airport Services

Fuel available: 100LL
FUEL AVBL SELF SERVE AFT HRS WITH CREDIT CARD
Parking: tiedowns

Runway Information

Runway 18/36

Dimensions: 5003 x 75 ft. / 1525 x 23 m
Surface: asphalt, in good condition
Weight bearing capacity: 
Single wheel: 30.0
Runway edge lights: high intensity
RUNWAY 18  RUNWAY 36
Latitude: 35-07.615722N35-06.791037N
Longitude: 090-49.584015W090-49.595965W
Elevation: 239.0 ft.229.0 ft.
Traffic pattern: leftleft
Runway heading: 182 magnetic, 181 true002 magnetic, 001 true
Markings: precision, in good conditionprecision, in good condition
Visual slope indicator: 2-light PAPI on left (3.00 degrees glide path)2-light PAPI on left (3.00 degrees glide path)
Runway end identifier lights: yesyes
Touchdown point: yes, no lightsyes, no lights

Airport Ownership and Management from official FAA records

Ownership: Publicly-owned
Owner: DELTA REGIONAL AIRPORT AUTHORITY
21 CR 703
WYNNE, AR 72396
Phone 870-208-6607
Manager: JOHN KERR
21 CR 703
WYNNE, AR 72396
Phone 870-208-6607

Airport Operational Statistics

Aircraft based on the field: 7
Single engine airplanes: 6
Multi engine airplanes: 1
    
Aircraft operations: avg 40/week *
86% local general aviation
14% transient general aviation
* for 12-month period ending 30 April 2017

Instrument Procedures

NOTE: All procedures below are presented as PDF files. If you need a reader for these files, you should download the free Adobe Reader.

NOT FOR NAVIGATION. Please procure official charts for flight.
FAA instrument procedures published for use from 6 December 2018 at 0901Z to 3 January 2019 at 0900Z.

 
IAPs - Instrument Approach Procedures
RNAV (GPS) RWY 18   download (168KB)
RNAV (GPS) RWY 36   download (163KB)
NOTE: Special Take-Off Minimums/Departure Procedures apply   download

Other nearby airports with instrument procedures:

6M7 - Marianna/Lee County Airport-Steve Edwards Field (20 nm S)
M36 - Frank Federer Memorial Airport (22 nm SW)
M60 - Woodruff County Airport (24 nm NW)
KAWM - West Memphis Municipal Airport (29 nm E)
KHEE - Thompson-Robbins Airport (33 nm S)
 
Loc | Ops | Rwys | IFR | FBO | Links
Com | Nav | Svcs | Stats | Notes


 
Aerial photo
No photo
 
Airport distance calculator
Flying to Delta Regional Airport? Find the distance to fly.

From to KDRP

Sunrise and sunset
Times for 13-Dec-2018
 Local
(UTC-6)
 Zulu
(UTC)
Morning civil twilight06:3612:36
Sunrise07:0413:04
Sunset16:5122:51
Evening civil twilight17:1923:19

Current date and time
Zulu (UTC)  13-Dec-2018 06:29:29
Local (UTC-6)  13-Dec-2018 00:29:29
 
METAR
KAWM 
29nm E 
130553Z AUTO 18006KT 4SM -RA FEW018 OVC048 09/06 A3000 RMK AO2 RAB48 SLP158 P0001 60002 T00940061 10100 20083 401000050 55004 $
KUTA 
35nm SE 
130615Z AUTO 15008KT 10SM -DZ 09/06 A3001 RMK AO2 TSNO
KM19 
35nm NW 
130556Z AUTO 14008KT 10SM BKN038 OVC049 07/05 A2996 RMK AO2 RAB06E45 SLP150 P0000 60000 T00720050 10083 20072 401000039 58014
KMEM 
42nm E 
130554Z 17007KT 10SM SCT045 OVC060 11/04 A3001 RMK AO2 SLP162 60000 T01110039 10111 20100 401170044 56006
KJBR 
44nm N 
130618Z AUTO 13004KT 10SM -RA SCT017 OVC036 08/06 A2998 RMK AO2 RAB15 P0000 T00780061
KSRC 
45nm W 
130556Z AUTO 00000KT 10SM -RA OVC035 08/08 A2995 RMK AO2 RAE15B42 SLP153 P0000 60000 T00830083 10089 20083 58008
KSGT 
48nm SW 
130556Z AUTO 16013KT 10SM FEW030 OVC043 11/09 A2996 RMK AO2 SLP146 60001 T01110089 10111 20083 401110061 58012
KNQA 
49nm E 
130550Z 12005KT 10SM SCT037 OVC055 09/03 A3000
TAF
KMEM 
42nm E 
130530Z 1306/1412 17005KT P6SM VCSH OVC050 WS020/21040KT FM131100 15009KT 5SM -SHRA BR OVC009 FM132200 13013G19KT 5SM -SHRA BR OVC015 FM140300 12013G18KT 5SM -SHRA BR OVC009
KJBR 
44nm N 
130530Z 1306/1406 15004KT P6SM SHRA OVC020 WS020/21040KT FM131000 14006KT 4SM -SHRA BR OVC009 FM132000 14009KT 4SM -RA BR OVC007 FM140400 09008KT 4SM -RA BR OVC003
NOTAMs
Click for the latest NOTAMs
NOTAMs are issued by the DoD/FAA and will open in a separate window not controlled by AirNav.

 

 
 

FBO, Fuel Providers, and Aircraft Ground Support

  
 Business Name 
 
 Contact 
 
 Services / Description 
 
Fuel Prices
 
Comments
  
Delta Regional Airport 870-208-6607
no information available

If you are affiliated with Delta Regional Airport and would like to show here your services, contact info, web link, logo, and more, click here
100LL
SS $4.12 
 Updated 01-Aug-2018
 
   1 read write
SS=Self service
Update Fuel Prices
 

Would you like to see your business listed on this page?

 If your business provides an interesting product or service to pilots, flight crews, aircraft, or users of the Delta Regional Airport, you should consider listing it here.  To start the listing process, click on the button below
 
Add a business
 

Other Pages about Delta Regional Airport

Update a link
 
Copyright © AirNav, LLC. All rights reserved. Privacy Policy  Contact